Regional Weather Roundup
Issued by NWS Albany, NY

Home | Current Version | Previous Version | Text Only | Print | Product List | Glossary On
Versions: 1 2 3 4 5 6 7 8 9 10 11 12 13 14 15 16 17 18 19 20 21 22 23 24 25 26 27 28 29 30 31 32 33 34 35 36 37 38 39 40 41 42 43 44 45 46 47 48 49 50
000
ASUS41 KALY 032210
RWRALY

NEW YORK STATE HOURLY WEATHER ROUNDUP
NATIONAL WEATHER SERVICE ALBANY NY
600 PM EDT FRI JUL 03 2015

NOTE: "FAIR" INDICATES FEW OR NO CLOUDS BELOW 12,000 FEET WITH NO
SIGNIFICANT WEATHER AND/OR NO OBSTRUCTIONS TO VISIBILITY.

NYZ032-033-038>043-046>054-057>066-NYZ062>081-032300-
EAST


CITY           SKY/WX    TMP DP  RH WIND       PRES   REMARKS
ALBANY         MOSUNNY   78  47  33 S6        29.96S
GLENS FALLS    SUNNY     75  52  44 S13       29.95S
POUGHKEEPSIE   MOSUNNY   78  51  38 SE5       29.95F
NEWBURGH       MOSUNNY   75  52  43 CALM      29.98F
MONTGOMERY     MOSUNNY   77  55  46 S5        29.95F
WHITE PLAINS   PTSUNNY   77  51  40 NW5       29.96F
ISLIP          PTSUNNY   75  52  44 S8        29.96S
NEW YORK CITY  PTSUNNY   78  55  44 S8        29.95S
CENTRAL PARK   PTSUNNY   79  55  43 VRB5      29.98S
$$

NYZ005>009-017-018-044>046-055-056-032300-
CENTRAL


CITY           SKY/WX    TMP DP  RH WIND       PRES   REMARKS
FULTON         SUNNY     73  50  44 N7        29.96F
SYRACUSE       PTSUNNY   74  51  44 E6        29.95S
ROME           SUNNY     75  46  35 NE3       29.97F
ELMIRA         MOSUNNY   77  56  48 SW5       29.92F
BINGHAMTON     SUNNY     72  51  47 S6        29.98F
MONTICELLO     MOSUNNY   73  50  43 SW3       30.00F
$$

NYZ026>034-041>043-032300-
NORTH


CITY           SKY/WX    TMP DP  RH WIND       PRES   REMARKS
WATERTOWN      SUNNY     71  46  40 SW6       29.97F
FORT DRUM      NOT AVBL
MASSENA        SUNNY     76  49  38 SW10      29.95S
SARANAC LAKE   SUNNY     70  43  37 W7        29.97S
PLATTSBURGH    SUNNY     74  51  44 SE5       29.93S
$$

NYZ001>004-010>016-019>021-032300-
WEST


CITY           SKY/WX    TMP DP  RH WIND       PRES   REMARKS
NIAGARA FALLS  PTSUNNY   71  50  47 NE10      29.94F
BUFFALO        PTSUNNY   73  53  49 N13       29.93F
DUNKIRK        MOSUNNY   70  54  56 NW6       29.93F
JAMESTOWN      MOSUNNY   72  54  53 NW8       29.95S
WELLSVILLE     MOSUNNY   73  55  53 S7        29.99S
ROCHESTER      PTSUNNY   71  49  45 NE15      29.95F
PENN YAN       MOSUNNY   73  53  49 E3        29.95F
$$

             KEY
       WCI = WIND CHILL INDEX
       VSB = VISIBILITY
       HX  = HEAT INDEX
$$


USA.gov is the U.S. government's official web portal to all federal, state and local government web resources and services.